Home   Weather   Tiruvarur   Past weeks

Flag for India Past Weather in Tiruvarur, Tamil Nadu, India — Yesterday and Last 2 Weeks

84 °F

Passing clouds.

Feels Like: 91 °F
Forecast: 78 / 92 °F
Wind: 5 mph from South

Location: Tiruchchirapalli

Current Time: Oct 28, 2016 at 9:34:08 PM

Latest Report: Oct 28, 2016 at 9:00 PM

Visibility: 2 mi

Pressure: 29.83 "Hg

Humidity: 70%

Dew Point: 73 °F

Location of TiruvarurLocation

Past Weather in Tiruvarur — Graph


Tiruvarur Temperature Yesterday

Maximum temperature yesterday: 91 °F (at 1:00 PM)
Minimum temperature yesterday: 77 °F (at 5:00 AM)
Average temperature yesterday: 84 °F

High & Low Weather Summary for the Past Weeks

High97 °F (Oct 28, 2:30 PM)94% (Oct 17, 4:00 AM)29.89 "Hg (Oct 17, 4:00 AM)
Low77 °F (Oct 14, 1:00 AM)39% (Oct 26, 3:30 PM)29.62 "Hg (Oct 19, 4:00 PM)
Average84 °F70%29.78 "Hg
* Reported Oct 13 8:30 PM — Oct 28 8:30 PM, Tiruvarur, Weather by CustomWeather, © 2016

Note: Actual official high and low records may vary slightly from our data, if they occured in-between our weather recording intervals... More about our weather records


Tiruvarur Weather History for the Previous 24 Hours

Scroll right to see more
Time TempWeatherWind HumidityBarometerVisibility
8:30 PM
Fri, Oct 28
86 °FPassing clouds.9 mph66%29.80 "Hg2 mi
8:00 PM86 °FPassing clouds.7 mph62%29.77 "Hg2 mi
7:30 PM88 °FPassing clouds.10 mph59%29.77 "Hg2 mi
7:00 PM88 °FPassing clouds.9 mph59%29.74 "Hg2 mi
6:30 PM90 °FPassing clouds.10 mph55%29.74 "Hg2 mi
6:00 PM90 °FScattered clouds.3 mph52%29.71 "Hg2 mi
5:30 PM91 °FScattered clouds.3 mph49%29.71 "Hg2 mi
5:00 PM93 °FScattered clouds.3 mph47%29.71 "Hg2 mi
4:30 PM93 °FScattered clouds.5 mph44%29.71 "Hg2 mi
4:00 PM95 °FScattered clouds.2 mph41%29.71 "Hg2 mi
3:30 PM95 °FScattered clouds.5 mph41%29.71 "Hg2 mi
3:00 PM97 °FScattered clouds.3 mph39%29.71 "Hg2 mi
2:30 PM97 °FScattered clouds.3 mph39%29.71 "Hg2 mi
2:00 PM93 °FScattered clouds.6 mph44%29.71 "Hg2 mi
1:30 PM91 °FScattered clouds.3 mph46%29.74 "Hg2 mi
1:00 PM91 °FScattered clouds.6 mph49%29.74 "Hg2 mi
12:30 PM91 °FScattered clouds.6 mph49%29.77 "Hg2 mi
12:00 PM91 °FScattered clouds.7 mph49%29.80 "Hg2 mi
11:30 AM91 °FScattered clouds.7 mph49%29.83 "Hg2 mi
11:00 AM88 °FHaze.5 mph59%29.83 "Hg2 mi
10:30 AM86 °FHaze.6 mph62%29.83 "Hg2 mi
10:00 AM86 °FHaze.3 mph62%29.86 "Hg2 mi
9:30 AM84 °FHaze.5 mph66%29.86 "Hg2 mi
9:00 AM84 °FHaze.8 mph66%29.86 "Hg2 mi
8:30 AM82 °FHaze.5 mph70%29.86 "Hg2 mi
8:00 AM81 °FHaze.5 mph74%29.83 "Hg2 mi
7:30 AM79 °FHaze.3 mph79%29.83 "Hg2 mi
7:00 AM77 °FFog.No wind83%29.80 "Hg1 mi
6:30 AM77 °FFog.No wind83%29.83 "Hg1 mi
6:00 AM77 °FFog.No wind83%29.80 "Hg1 mi
5:30 AM77 °FFog.No wind83%29.80 "Hg1 mi
5:00 AM77 °FFog.No wind83%29.77 "Hg1 mi
4:30 AM79 °FFog.No wind79%29.77 "Hg1 mi
4:00 AM79 °FFog.No wind79%29.77 "Hg1 mi
3:30 AM79 °FFog.No wind79%29.77 "Hg1 mi
3:00 AM79 °FFog.No wind79%29.77 "Hg2 mi
2:30 AM79 °FFog.6 mph79%29.77 "Hg2 mi
2:00 AM81 °FHaze.3 mph79%29.77 "Hg2 mi
1:30 AM81 °FHaze.3 mph79%29.80 "Hg2 mi
1:00 AM81 °FHaze.5 mph79%29.83 "Hg2 mi
12:30 AM81 °FHaze.5 mph79%29.83 "Hg2 mi
12:00 AM81 °FHaze.5 mph74%29.83 "Hg2 mi
11:30 PM
Thu, Oct 27
81 °FHaze.5 mph74%29.83 "Hg2 mi
11:00 PM81 °FHaze.6 mph70%29.83 "Hg2 mi
10:30 PM81 °FHaze.7 mph70%29.83 "Hg2 mi
10:00 PM82 °FHaze.5 mph66%29.83 "Hg2 mi
9:30 PM82 °FHaze.6 mph66%29.83 "Hg2 mi
9:00 PM82 °FHaze.5 mph66%29.83 "Hg2 mi
Weather by CustomWeather, © 2016

See weather overviewHow to use our weather pages